[[{"header":{"parameterUnit":"m.s-1","parameterCategory":1,"la1":30.2991,"la2":30.254,"lo1":-89.0895,"lo2":-89.0444,"dy":0.0017,"dx":0.0017,"nx":28,"ny":28,"refTime":"2025-01-08T09:00:00:Z","depth":0,"parameterNumber":2,"parameterNumberName":"U-component_of_WINDS"},"data":[0,0,0,0,0,0,0,0,0,0,0,0,0,0,0,0,0,0,0,0,0,0,0,0,0,0,0,0,0,0,0,0,0,0,0,0,0,0,0,0,0,0,0,0,0,0,0,0,0,0,0,0,0,0,0,0,0,0,-2.95,-2.9501,0,-2.9584,-2.9585,-2.9586,-2.9492,-2.9489,-2.9485,-2.9482,-2.9569,-2.9574,-2.958,0,0,0,0,0,0,0,0,0,0,0,0,0,-2.9256,-2.9261,-2.95,-2.9501,-2.9502,-2.9584,-2.9585,-2.9587,-2.9493,-2.9488,-2.9484,-2.948,-2.9567,-2.9574,-2.958,0,0,0,0,0,0,0,0,0,0,0,0,0,-2.9353,-2.9262,-2.9499,-2.9465,-2.9463,-2.9584,-2.9585,-2.9587,-2.9494,-2.9488,-2.9483,-2.9478,-2.9565,-2.9573,-2.9581,-2.9741,0,0,-2.9607,-2.9611,0,0,0,0,0,0,0,0,-2.9348,-2.9362,-2.9469,-2.9467,-2.9465,-2.9522,-2.9531,-2.9639,-2.9495,-2.9482,-2.9481,-2.9475,-2.9558,-2.9566,-2.9594,-2.9745,-2.9749,-2.9608,-2.9613,-2.9617,-2.9619,0,0,0,0,0,0,0,-2.9341,-2.9358,-2.9533,-2.9471,-2.9468,-2.9445,-2.9453,-2.9551,-2.9549,-2.9483,-2.9476,-2.9487,-2.9556,-2.9586,-2.9595,-2.975,-2.9608,-2.9615,-2.9621,-2.9624,-3.0035,-3.0041,0,0,0,0,0,0,-2.9338,-2.9353,-2.953,-2.9536,-2.9392,-2.9454,-2.9462,-2.9509,-2.9548,-2.9548,-2.9492,-2.9483,-2.9574,-2.9586,-2.9598,-2.9787,-2.9617,-2.9625,-2.963,-3.0029,-3.0036,-3.0043,0,0,0,0,0,0,-2.9333,-2.9355,-2.9527,-2.9443,-2.9463,-2.9463,-2.9517,-2.9514,-2.9544,-2.9554,-2.9553,-2.9524,-2.9571,-2.9586,-2.9706,-2.9789,-2.9629,-2.9636,-3.0023,-3.0032,-3.004,-3.0167,0,0,0,0,0,0,-2.9327,-2.9354,-2.9415,-2.9445,-2.9468,-2.9634,-2.9522,-2.9519,-2.9559,-2.9548,-2.9584,-2.9585,-2.9568,-2.9694,-2.9714,-2.9798,-2.9643,-3.0015,-3.0027,-3.0037,-3.0156,-3.0179,-3.0199,0,0,0,0,0,-2.9318,-2.9448,-2.9419,-2.9441,-2.9544,-2.9639,-2.9652,-2.963,-2.9566,-2.9627,-2.9633,-2.9584,-2.9776,-2.9707,-2.9729,-2.9816,-3.001,-3.0023,-3.0036,-3.0146,-3.0175,-3.0199,0,0,0,0,0,0,-2.9429,-2.9451,-2.9419,-2.9562,-2.9599,-2.9623,-2.97,-2.9661,-2.9717,-2.9705,-2.9674,-2.9683,-2.981,-2.9825,-2.9747,-2.9972,-2.9883,-2.9901,-2.9958,-2.9986,-3.0007,-3.0001,-2.965,0,0,0,0,0,-2.9469,-2.9545,-2.956,-2.9685,-2.9705,-2.97,-2.974,-2.9719,-2.9757,-2.9772,-2.9787,-2.9826,-2.9894,-2.9941,-3.0005,-3.0157,-3.0163,-3.0227,-3.0249,-3.0267,-3.0284,-3.0364,-3.0393,-3.0086,-3.0086,-3.0085,0,0,-2.9555,-2.9576,-2.9626,-2.9708,-2.9734,-2.9813,-2.9714,-2.9801,-2.9859,-2.9786,-2.99,-2.9912,-2.9952,-3.0089,-3.0149,-3.0105,-3.0369,-3.0284,-3.0298,-3.0305,-3.0381,-3.041,-3.0436,-3.0095,-3.0093,-3.0092,0,0,-2.9751,-2.9775,-2.9881,-2.9909,-2.995,-2.9945,-2.9971,-3.0,-3.0005,-3.0119,-3.0065,-3.0133,-3.0253,-3.0283,-3.0315,-3.052,-3.0476,-3.0542,-3.0657,-3.0736,-3.076,-3.0781,-3.0855,-3.0881,-3.0558,-3.0558,-3.0559,0,-2.9852,-2.9968,-2.994,-3.0032,-3.0069,-3.0005,-3.0112,-3.014,-3.0201,-3.0228,-3.0177,-3.0324,-3.0347,-3.0489,-3.0539,-3.0567,-3.0595,-3.0538,-3.0759,-3.078,-3.0799,-3.0869,-3.0896,-3.0566,-3.0565,-3.0564,-3.0564,0,-3.0091,-3.0172,-3.0253,-3.0312,-3.0358,-3.0457,-3.0443,-3.0493,-3.0468,-3.0468,-3.0584,-3.0608,-3.0676,-3.0708,-3.0684,-3.0847,-3.0818,-3.0763,-3.0673,-3.0837,-3.0902,-3.0928,-3.0577,-3.0574,-3.0572,-3.057,0,0,-3.036,-3.0401,-3.0432,-3.0457,-3.0497,-3.0559,-3.0654,-3.072,-3.0763,-3.0806,-3.0885,-3.0986,-3.0936,-3.0972,-3.095,-3.102,-3.118,-3.0956,-3.0957,-3.0997,-3.136,-3.1401,-3.1433,-3.1151,-3.1156,-3.116,-3.1357,0,-3.0557,-3.0722,-3.0699,-3.0858,-3.0932,-3.0872,-3.0954,-3.0987,-3.099,-3.1053,-3.1054,-3.1127,-3.1055,-3.1076,-3.1142,-3.1147,-3.1253,-3.1132,-3.1224,-3.1227,-3.1216,-3.1467,-3.1511,-3.1696,-3.1382,-3.1386,-3.1389,0,-3.0809,-3.0861,-3.1027,-3.1054,-3.1084,-3.1159,-3.1217,-3.1278,-3.1314,-3.131,-3.1349,-3.1315,-3.1409,-3.1316,-3.1446,-3.1364,-3.14,-3.1408,-3.1414,-3.1423,-3.1319,-3.1482,-3.1754,-3.1782,-3.1429,-3.1426,-3.1423,0,-3.0989,-3.11,-3.1214,-3.1238,-3.1272,-3.1326,-3.1342,-3.1373,-3.1413,-3.1463,-3.1489,-3.1549,-3.1583,-3.163,-3.1613,-3.1546,-3.1746,-3.1651,-3.1745,-3.1746,-3.1791,-3.1788,-3.2073,-3.1813,-3.1813,-3.1812,-3.1812,0,-3.1212,-3.1316,-3.1295,-3.1365,-3.148,-3.1451,-3.1565,-3.1574,-3.1601,-3.1672,-3.1622,-3.1689,-3.1662,-3.1727,-3.1714,-3.1823,-3.1838,-3.1838,-3.1833,-3.1843,-3.1843,-3.1866,-3.1853,-3.182,-3.1818,-3.1816,-3.1815,0,-3.1433,-3.1424,-3.1543,-3.1565,-3.1573,-3.1657,-3.1675,-3.174,-3.1738,-3.1827,-3.1846,-3.1843,-3.1916,-3.1903,-3.1985,-3.1976,-3.2112,-3.2092,-3.2101,-3.2096,-3.2191,-3.2182,-3.2501,-3.2541,-3.2255,-3.2258,-3.226,0,-3.1577,-3.1655,-3.1685,-3.1729,-3.1749,-3.182,-3.1861,-3.1835,-3.1879,-3.1925,-3.1985,-3.2054,-3.2108,-3.2228,-3.2232,-3.2294,-3.2275,-3.2382,-3.2284,-3.229,-3.2276,-3.2272,-3.228,-3.2402,-3.2405,-3.2408,-3.241,0,-3.1832,-3.1823,-3.1883,-3.1942,-3.1992,-3.2037,-3.2078,-3.2116,-3.2093,-3.2146,-3.222,-3.2262,-3.2344,-3.2414,-3.2471,-3.2487,-3.2446,-3.2441,-3.2466,-3.2477,-3.2479,-3.2479,-3.2154,-3.2434,-3.2432,-3.243,-3.2429,-3.2428,-3.2019,-3.2085,-3.2117,-3.2185,-3.2213,-3.2251,-3.2313,-3.2318,-3.238,-3.2445,-3.2426,-3.251,-3.2542,-3.2614,-3.2637,-3.2702,-3.2662,-3.2699,-3.2708,-3.2718,-3.2729,-3.2468,-3.2713,-3.2712,-3.2711,-3.2711,-3.271,0,-3.2271,-3.2288,-3.2351,-3.2409,-3.2463,-3.2418,-3.246,-3.2508,-3.2583,-3.2616,-3.267,-3.2755,-3.2821,-3.283,-3.2892,-3.2943,-3.2925,-3.296,-3.2956,-3.2961,-3.2761,-3.2734,-3.2973,-3.2973,-3.2973,-3.2973,-3.2973,-3.2973,-3.2409,-3.2519,-3.2514,-3.2636,-3.2652,-3.2734,-3.2762,-3.2797,-3.2823,-3.292,-3.2975,-3.298,-3.3003,-3.3066,-3.3125,-3.3125,-3.3151,-3.3194,-3.3187,-3.3001,-3.2975,-3.295,-3.2923,-3.3199,-3.32,-3.3381,-3.3382,-3.3384]},{"header":{"parameterUnit":"m.s-1","parameterCategory":1,"la1":30.2991,"la2":30.254,"lo1":-89.0895,"lo2":-89.0444,"dy":0.0017,"dx":0.0017,"nx":28,"ny":28,"refTime":"2025-01-08T09:00:00:Z","depth":0,"parameterNumber":3,"parameterNumberName":"V-component_of_WINDS"},"data":[0,0,0,0,0,0,0,0,0,0,0,0,0,0,0,0,0,0,0,0,0,0,0,0,0,0,0,0,0,0,0,0,0,0,0,0,0,0,0,0,0,0,0,0,0,0,0,0,0,0,0,0,0,0,0,0,0,0,-5.5131,-5.5132,0,-5.5202,-5.5203,-5.5204,-5.5114,-5.5111,-5.5108,-5.5105,-5.5173,-5.5178,-5.5183,0,0,0,0,0,0,0,0,0,0,0,0,0,-5.4912,-5.4917,-5.5131,-5.5132,-5.5133,-5.5202,-5.5203,-5.5204,-5.5115,-5.5111,-5.5107,-5.5103,-5.5172,-5.5177,-5.5183,0,0,0,0,0,0,0,0,0,0,0,0,0,-5.4998,-5.4918,-5.5131,-5.5097,-5.5094,-5.5202,-5.5203,-5.5204,-5.5116,-5.5111,-5.5106,-5.5101,-5.517,-5.5177,-5.5184,-5.5327,0,0,-5.5206,-5.521,0,0,0,0,0,0,0,0,-5.4993,-5.5006,-5.5101,-5.5099,-5.5097,-5.5144,-5.5151,-5.5245,-5.5117,-5.5107,-5.5104,-5.5099,-5.5167,-5.5174,-5.5198,-5.533,-5.5333,-5.5207,-5.5211,-5.5215,-5.5217,0,0,0,0,0,0,0,-5.4987,-5.5002,-5.5159,-5.5102,-5.51,-5.5076,-5.5083,-5.5168,-5.5164,-5.5108,-5.5102,-5.5111,-5.5165,-5.5192,-5.5199,-5.5334,-5.5207,-5.5213,-5.5218,-5.5221,-5.5584,-5.5589,0,0,0,0,0,0,-5.4986,-5.4998,-5.5157,-5.5161,-5.5032,-5.5084,-5.5091,-5.5134,-5.5163,-5.5162,-5.5115,-5.5107,-5.5182,-5.5191,-5.5201,-5.5369,-5.5215,-5.5221,-5.5226,-5.5579,-5.5585,-5.5591,0,0,0,0,0,0,-5.4982,-5.5001,-5.5154,-5.5078,-5.5095,-5.5093,-5.5141,-5.5138,-5.5164,-5.5169,-5.5167,-5.5144,-5.5178,-5.5191,-5.5296,-5.537,-5.5225,-5.5231,-5.5573,-5.5581,-5.5588,-5.5707,0,0,0,0,0,0,-5.4976,-5.5,-5.5056,-5.508,-5.51,-5.525,-5.5146,-5.5143,-5.5178,-5.5167,-5.5195,-5.5194,-5.5175,-5.5286,-5.5304,-5.5378,-5.5237,-5.5566,-5.5576,-5.5586,-5.5696,-5.5718,-5.5736,0,0,0,0,0,-5.4968,-5.5086,-5.5059,-5.5079,-5.517,-5.5254,-5.5265,-5.5242,-5.5184,-5.5239,-5.5241,-5.5193,-5.536,-5.5297,-5.5316,-5.5394,-5.5561,-5.5573,-5.5585,-5.5687,-5.5713,-5.5736,0,0,0,0,0,0,-5.507,-5.5089,-5.5059,-5.5188,-5.5221,-5.5239,-5.5308,-5.5271,-5.5319,-5.5307,-5.5275,-5.5282,-5.5394,-5.5404,-5.5335,-5.5532,-5.545,-5.5467,-5.5522,-5.5547,-5.5566,-5.5561,-5.5243,0,0,0,0,0,-5.5107,-5.5176,-5.5188,-5.5301,-5.5318,-5.5311,-5.5346,-5.5326,-5.5357,-5.537,-5.5379,-5.541,-5.5469,-5.5508,-5.5563,-5.5697,-5.5701,-5.576,-5.578,-5.5796,-5.581,-5.588,-5.5905,-5.563,-5.563,-5.563,0,0,-5.5185,-5.5204,-5.5249,-5.5322,-5.5344,-5.5413,-5.5322,-5.54,-5.5451,-5.5381,-5.5481,-5.5489,-5.5521,-5.5641,-5.5694,-5.5653,-5.5887,-5.5811,-5.5824,-5.5829,-5.5894,-5.5921,-5.5944,-5.5638,-5.5636,-5.5635,0,0,-5.5363,-5.5385,-5.5481,-5.5505,-5.554,-5.5534,-5.5557,-5.5581,-5.5584,-5.5684,-5.5632,-5.5691,-5.5793,-5.5818,-5.5843,-5.6029,-5.5985,-5.6047,-5.6151,-5.6219,-5.6241,-5.626,-5.6324,-5.6348,-5.6061,-5.6062,-5.6062,0,-5.5455,-5.556,-5.5534,-5.5615,-5.5648,-5.5588,-5.5683,-5.5708,-5.5759,-5.5781,-5.5735,-5.5861,-5.5879,-5.6002,-5.6047,-5.6071,-5.6094,-5.6044,-5.624,-5.6259,-5.6276,-5.6337,-5.6362,-5.6069,-5.6068,-5.6067,-5.6067,0,-5.567,-5.5743,-5.5816,-5.5867,-5.5908,-5.5996,-5.5981,-5.6025,-5.6,-5.5998,-5.6099,-5.6118,-5.6174,-5.6202,-5.6179,-5.6322,-5.6295,-5.6246,-5.6162,-5.631,-5.6367,-5.639,-5.6079,-5.6076,-5.6074,-5.6073,0,0,-5.5914,-5.595,-5.5977,-5.5998,-5.6032,-5.6087,-5.6171,-5.6227,-5.6264,-5.6301,-5.6369,-5.6457,-5.641,-5.6439,-5.6418,-5.6478,-5.6621,-5.642,-5.642,-5.6455,-5.6777,-5.6814,-5.6841,-5.6593,-5.6597,-5.6601,-5.6774,0,-5.609,-5.6238,-5.6216,-5.6357,-5.6423,-5.6367,-5.6439,-5.6467,-5.6467,-5.6521,-5.652,-5.6582,-5.6517,-5.6534,-5.6591,-5.6592,-5.6685,-5.6579,-5.6654,-5.6657,-5.6647,-5.6871,-5.6911,-5.7073,-5.6796,-5.68,-5.6802,0,-5.6316,-5.6362,-5.651,-5.6531,-5.6558,-5.6624,-5.6673,-5.6726,-5.6755,-5.675,-5.6783,-5.675,-5.6832,-5.6748,-5.6858,-5.6787,-5.6816,-5.6821,-5.6826,-5.6831,-5.6738,-5.6881,-5.7125,-5.7149,-5.6837,-5.6834,-5.6832,0,-5.6477,-5.6575,-5.6676,-5.6696,-5.6725,-5.6772,-5.6786,-5.681,-5.6845,-5.6887,-5.6908,-5.6959,-5.6986,-5.7025,-5.7006,-5.6947,-5.712,-5.7034,-5.7116,-5.7117,-5.7154,-5.7152,-5.7405,-5.7176,-5.7175,-5.7175,-5.7174,0,-5.6676,-5.6768,-5.6748,-5.681,-5.6911,-5.6884,-5.6984,-5.699,-5.7012,-5.7073,-5.7027,-5.7084,-5.7056,-5.7111,-5.7096,-5.7189,-5.7202,-5.7199,-5.7194,-5.7203,-5.7203,-5.722,-5.7208,-5.7181,-5.718,-5.7179,-5.7178,0,-5.6872,-5.6863,-5.6969,-5.6987,-5.6994,-5.7067,-5.7081,-5.7138,-5.7134,-5.7211,-5.7227,-5.7221,-5.7283,-5.7268,-5.7335,-5.7325,-5.7441,-5.7422,-5.7432,-5.7427,-5.7509,-5.7501,-5.7781,-5.7815,-5.7565,-5.7568,-5.757,0,-5.6999,-5.7069,-5.7094,-5.7132,-5.715,-5.7211,-5.7246,-5.7222,-5.726,-5.7297,-5.7349,-5.7407,-5.7452,-5.7553,-5.7553,-5.7603,-5.7584,-5.7679,-5.7592,-5.7598,-5.7584,-5.7579,-5.7585,-5.7696,-5.7699,-5.7701,-5.7703,0,-5.7224,-5.7216,-5.7269,-5.732,-5.7364,-5.7402,-5.7437,-5.747,-5.7448,-5.7492,-5.7556,-5.7591,-5.7659,-5.7716,-5.7763,-5.7774,-5.7735,-5.7731,-5.7752,-5.7761,-5.7763,-5.7761,-5.7478,-5.7724,-5.7722,-5.7721,-5.772,-5.7719,-5.7388,-5.7447,-5.7474,-5.7534,-5.7557,-5.759,-5.7644,-5.7647,-5.7699,-5.7754,-5.7736,-5.7808,-5.7832,-5.7891,-5.7908,-5.7962,-5.7926,-5.7958,-5.7965,-5.7973,-5.7982,-5.7756,-5.7971,-5.797,-5.7969,-5.7969,-5.7969,0,-5.761,-5.7624,-5.768,-5.7729,-5.7776,-5.7736,-5.7771,-5.7812,-5.7876,-5.7904,-5.7949,-5.802,-5.8075,-5.808,-5.8131,-5.8173,-5.8156,-5.8187,-5.8183,-5.8186,-5.8013,-5.7988,-5.82,-5.82,-5.82,-5.82,-5.82,-5.82,-5.773,-5.7827,-5.7821,-5.7928,-5.7941,-5.8012,-5.8035,-5.8064,-5.8085,-5.8168,-5.8214,-5.8216,-5.8234,-5.8285,-5.8333,-5.8333,-5.8353,-5.8391,-5.8383,-5.8221,-5.8198,-5.8176,-5.8153,-5.8396,-5.8396,-5.8552,-5.8553,-5.8554]}]]